TimeEST,TemperatureF,Dew PointF,Humidity,Sea Level PressureIn,VisibilityMPH,Wind Direction,Wind SpeedMPH,Gust SpeedMPH,PrecipitationIn,Events,Conditions,WindDirDegrees,DateUTC
12:15 AM,35.6,32.0,87,30.22,10.0,North,8.1,-,N/A,,Overcast,360,2012-11-28 05:15:00
12:35 AM,35.6,32.0,87,30.21,10.0,North,6.9,-,N/A,,Overcast,360,2012-11-28 05:35:00
12:55 AM,35.6,32.0,87,30.21,10.0,North,6.9,-,N/A,,Overcast,350,2012-11-28 05:55:00
1:15 AM,35.6,32.0,87,30.21,10.0,WNW,4.6,-,N/A,,Overcast,300,2012-11-28 06:15:00
1:35 AM,35.6,32.0,87,30.22,10.0,NNW,4.6,-,N/A,,Overcast,330,2012-11-28 06:35:00
1:55 AM,35.6,32.0,87,30.22,10.0,NNW,3.5,-,N/A,,Overcast,340,2012-11-28 06:55:00
2:15 AM,35.6,32.0,87,30.22,10.0,NW,5.8,-,N/A,,Overcast,310,2012-11-28 07:15:00
2:35 AM,33.8,32.0,93,30.22,10.0,NNW,5.8,-,N/A,,Overcast,330,2012-11-28 07:35:00
2:55 AM,33.8,32.0,93,30.23,10.0,NW,5.8,-,N/A,,Overcast,310,2012-11-28 07:55:00
3:15 AM,35.6,32.0,87,30.24,10.0,NW,6.9,-,N/A,,Overcast,320,2012-11-28 08:15:00
3:35 AM,33.8,32.0,93,30.24,10.0,NW,5.8,-,N/A,,Overcast,310,2012-11-28 08:35:00
3:55 AM,33.8,32.0,93,30.24,10.0,WNW,4.6,-,N/A,,Overcast,300,2012-11-28 08:55:00
4:15 AM,33.8,32.0,93,30.24,8.0,WNW,5.8,-,N/A,,Overcast,300,2012-11-28 09:15:00
4:35 AM,33.8,32.0,93,30.24,8.0,WNW,6.9,-,N/A,,Overcast,300,2012-11-28 09:35:00
4:55 AM,33.8,32.0,93,30.24,7.0,WNW,6.9,-,N/A,,Overcast,300,2012-11-28 09:55:00
5:15 AM,33.8,32.0,93,30.24,7.0,NW,5.8,-,N/A,,Mostly Cloudy,320,2012-11-28 10:15:00
5:35 AM,32.0,32.0,100,30.23,7.0,NW,5.8,-,N/A,,Scattered Clouds,320,2012-11-28 10:35:00
5:55 AM,32.0,32.0,100,30.23,7.0,NW,5.8,-,N/A,,Clear,320,2012-11-28 10:55:00
6:15 AM,32.0,30.2,93,30.24,8.0,NW,6.9,-,N/A,,Clear,320,2012-11-28 11:15:00
6:35 AM,32.0,30.2,93,30.25,8.0,NW,4.6,-,N/A,,Clear,310,2012-11-28 11:35:00
6:55 AM,30.2,28.4,93,30.25,7.0,NW,5.8,-,N/A,,Clear,310,2012-11-28 11:55:00
7:15 AM,30.2,28.4,93,30.26,7.0,NW,5.8,-,N/A,,Clear,310,2012-11-28 12:15:00
7:35 AM,30.2,28.4,93,30.26,8.0,WNW,4.6,-,N/A,,Clear,300,2012-11-28 12:35:00
7:55 AM,32.0,28.4,87,30.27,9.0,NW,6.9,-,N/A,,Clear,320,2012-11-28 12:55:00
8:15 AM,32.0,28.4,87,30.28,9.0,NW,8.1,-,N/A,,Clear,310,2012-11-28 13:15:00
8:35 AM,32.0,26.6,80,30.28,10.0,WNW,6.9,-,N/A,,Clear,300,2012-11-28 13:35:00
8:55 AM,33.8,26.6,75,30.28,10.0,NW,9.2,-,N/A,,Clear,310,2012-11-28 13:55:00
9:15 AM,33.8,28.4,81,30.29,10.0,NW,8.1,-,N/A,,Unknown,310,2012-11-28 14:15:00
9:35 AM,35.6,28.4,75,30.29,10.0,WNW,10.4,-,N/A,,Clear,300,2012-11-28 14:35:00
9:55 AM,35.6,28.4,75,30.29,10.0,WNW,12.7,-,N/A,,Clear,300,2012-11-28 14:55:00
10:15 AM,35.6,26.6,70,30.29,10.0,NW,11.5,-,N/A,,Clear,310,2012-11-28 15:15:00
10:35 AM,35.6,26.6,70,30.29,10.0,NW,13.8,-,N/A,,Clear,310,2012-11-28 15:35:00
10:55 AM,35.6,24.8,65,30.28,10.0,NW,12.7,17.3,N/A,,Partly Cloudy,320,2012-11-28 15:55:00
11:15 AM,35.6,24.8,65,30.27,10.0,NW,12.7,-,N/A,,Mostly Cloudy,320,2012-11-28 16:15:00
11:35 AM,37.4,24.8,60,30.25,10.0,NNW,10.4,19.6,N/A,,Scattered Clouds,330,2012-11-28 16:35:00
11:55 AM,35.6,23.0,60,30.26,10.0,NW,15.0,-,N/A,,Scattered Clouds,310,2012-11-28 16:55:00
12:15 PM,35.6,24.8,65,30.26,10.0,NW,16.1,21.9,N/A,,Mostly Cloudy,320,2012-11-28 17:15:00
12:35 PM,35.6,24.8,65,30.26,10.0,NW,12.7,-,N/A,,Overcast,320,2012-11-28 17:35:00
12:55 PM,37.4,24.8,60,30.25,10.0,NW,9.2,-,N/A,,Overcast,320,2012-11-28 17:55:00
1:15 PM,35.6,26.6,70,30.25,10.0,NW,9.2,-,N/A,,Mostly Cloudy,320,2012-11-28 18:15:00
1:55 PM,37.4,26.6,65,30.23,10.0,NW,12.7,18.4,N/A,,Clear,320,2012-11-28 18:55:00
2:15 PM,37.4,26.6,65,30.23,10.0,WNW,13.8,17.3,N/A,,Clear,300,2012-11-28 19:15:00
2:35 PM,37.4,26.6,65,30.23,10.0,WNW,10.4,18.4,N/A,,Clear,300,2012-11-28 19:35:00
2:55 PM,39.2,26.6,61,30.23,10.0,WNW,16.1,-,N/A,,Clear,300,2012-11-28 19:55:00
3:15 PM,39.2,26.6,61,30.23,10.0,NW,10.4,-,N/A,,Clear,310,2012-11-28 20:15:00
3:35 PM,37.4,26.6,65,30.23,10.0,WNW,10.4,-,N/A,,Clear,290,2012-11-28 20:35:00
3:55 PM,37.4,26.6,65,30.23,10.0,NW,4.6,-,N/A,,Clear,310,2012-11-28 20:55:00
4:15 PM,35.6,28.4,75,30.23,10.0,WNW,6.9,-,N/A,,Clear,300,2012-11-28 21:15:00
4:35 PM,33.8,26.6,75,30.24,10.0,WNW,6.9,-,N/A,,Clear,290,2012-11-28 21:35:00
4:55 PM,35.6,26.6,70,30.25,10.0,West,3.5,-,N/A,,Clear,270,2012-11-28 21:55:00
5:15 PM,37.4,24.8,60,30.26,10.0,West,3.5,-,N/A,,Clear,260,2012-11-28 22:15:00
5:35 PM,33.8,26.6,75,30.26,10.0,Calm,Calm,-,N/A,,Clear,0,2012-11-28 22:35:00
5:55 PM,35.6,24.8,65,30.26,10.0,Calm,Calm,-,N/A,,Clear,0,2012-11-28 22:55:00
6:15 PM,35.6,24.8,65,30.26,10.0,SSW,3.5,-,N/A,,Clear,210,2012-11-28 23:15:00
6:35 PM,35.6,24.8,65,30.27,10.0,SW,3.5,-,N/A,,Clear,230,2012-11-28 23:35:00
6:55 PM,35.6,24.8,65,30.28,10.0,SW,3.5,-,N/A,,Clear,220,2012-11-28 23:55:00
7:35 PM,33.8,23.0,65,30.29,10.0,WNW,3.5,-,N/A,,Clear,290,2012-11-29 00:35:00
7:55 PM,32.0,23.0,69,30.29,10.0,NW,5.8,-,N/A,,Clear,310,2012-11-29 00:55:00
8:15 PM,33.8,24.8,70,30.30,10.0,SSW,4.6,-,N/A,,Clear,200,2012-11-29 01:15:00
8:35 PM,33.8,23.0,65,30.31,10.0,WNW,3.5,-,N/A,,Clear,300,2012-11-29 01:35:00
8:55 PM,33.8,23.0,65,30.31,10.0,WSW,3.5,-,N/A,,Clear,250,2012-11-29 01:55:00
9:15 PM,33.8,23.0,65,30.31,10.0,West,3.5,-,N/A,,Clear,270,2012-11-29 02:15:00
9:35 PM,33.8,23.0,65,30.32,10.0,SW,3.5,-,N/A,,Clear,220,2012-11-29 02:35:00
9:55 PM,32.0,21.2,64,30.32,10.0,West,4.6,-,N/A,,Clear,260,2012-11-29 02:55:00
10:15 PM,33.8,21.2,60,30.33,10.0,Calm,Calm,-,N/A,,Clear,0,2012-11-29 03:15:00
10:35 PM,32.0,21.2,64,30.33,10.0,WNW,4.6,-,N/A,,Clear,290,2012-11-29 03:35:00
10:55 PM,32.0,21.2,64,30.33,10.0,WNW,5.8,-,N/A,,Clear,290,2012-11-29 03:55:00
11:15 PM,33.8,21.2,60,30.34,10.0,WNW,5.8,-,N/A,,Clear,290,2012-11-29 04:15:00
11:35 PM,32.0,21.2,64,30.34,10.0,WNW,6.9,-,N/A,,Clear,290,2012-11-29 04:35:00
11:55 PM,30.2,21.2,69,30.34,10.0,WNW,5.8,-,N/A,,Clear,290,2012-11-29 04:55:00